Location: Ashtead
(51.3000°N, 0.3000°W)
Time: 04:23:54
(UTC+00:00)

ATLAS CENTAUR R/B - Pass Details

Date: 26 September 2023
Orbit: 462 x 604 km, 64.7° (Epoch: 29 November)

Event Time Altitude Azimuth Distance (km) Brightness Sun altitude
Exits shadow 04:44:55 - 318° (NW) 2,533 4.4 -11.4°
Reaches altitude 10° 04:48:06 10° 348° (NNW) 1,643 3.8 -10.9°
Maximum altitude 04:49:48 13° 15° (NNE) 1,472 3.9 -10.7°
Drops below altitude 10° 04:51:29 10° 43° (NE) 1,627 4.6 -10.4°
Sets 04:54:38 0° 74° (ENE) 2,495 6.9 -9.9°
